Wind_Speed
16 17 17 17 17 17 18 18 18 18 19 19 18 18 18 19 20 21 21 19 18 18 18 19 20 20 20 20 18 16 15 15 16 18 14 10 17 21 21 19 17 16 19 21 23 24 23 21 18 16 16 14 12 10 7 7 9 13 15 15 15 11 6 3 2 4 5 5 5 6 8 5 8 12 14 12 8 11 9 5 2 5 4 8 17 23 27 29
16 16 16 17 17 17 17 17 18 18 18 18 18 18 18 18 19 20 21 20 19 18 18 19 20 20 21 20 19 18 17 15 15 15 10 11 20 23 19 17 16 16 18 20 22 24 23 21 19 18 17 15 13 10 9 9 12 16 16 18 18 11 6 5 4 2 4 3 5 9 8 6 8 12 16 12 12 15 13 11 9 9 11 12 18 25 28 29
16 16 17 17 16 17 17 17 17 18 18 18 18 18 18 18 19 19 20 20 19 18 18 19 20 21 21 20 20 20 18 17 14 11 10 13 18 20 18 17 16 16 16 17 20 22 23 21 19 19 17 15 14 10 9 9 13 18 16 20 20 10 5 5 5 4 3 5 6 10 9 6 6 11 15 12 13 16 17 18 15 9 9 9 17 26 28 29
17 17 17 17 17 17 17 17 17 17 18 18 18 17 17 18 18 19 19 20 19 19 19 19 20 21 21 20 20 20 19 19 16 10 10 15 17 18 18 17 16 16 15 17 20 22 22 21 20 19 17 17 14 11 11 11 13 16 17 19 15 10 8 6 8 7 7 5 3 7 9 5 5 11 11 11 14 15 17 18 15 8 5 7 14 24 29 29
19 18 18 18 18 18 18 18 18 18 18 18 18 17 17 18 18 18 19 19 19 19 19 19 20 21 21 20 20 20 19 19 16 7 5 11 16 18 17 17 17 15 15 18 22 24 24 23 21 19 18 18 15 15 15 13 13 15 18 17 12 13 12 8 9 8 11 9 4 4 8 6 7 11 8 10 15 14 15 15 12 8 5 6 10 20 29 30
20 20 20 20 20 20 20 20 20 19 19 19 18 18 18 18 18 18 18 18 19 19 18 19 20 21 21 21 20 20 18 16 16 11 7 7 11 17 17 17 17 16 17 19 22 25 27 25 22 20 19 18 18 19 16 14 16 16 17 16 14 17 14 9 8 6 10 10 9 5 4 6 12 12 7 9 12 10 12 12 9 7 5 7 9 15 26 29
22 22 22 22 22 22 22 22 21 21 21 21 20 19 18 18 18 19 19 18 18 19 19 19 20 21 21 22 20 20 19 15 17 19 14 9 8 14 18 19 19 19 18 19 23 26 28 28 26 22 20 20 19 20 17 14 17 19 20 16 14 16 15 12 9 7 9 8 8 4 5 11 14 13 8 10 12 10 13 13 7 8 7 7 9 12 19 24
23 23 23 23 23 23 24 24 23 23 23 22 22 21 19 19 19 19 19 19 18 18 19 18 20 20 20 21 21 22 18 13 17 20 16 11 9 12 16 19 20 21 18 18 21 25 29 30 28 25 23 22 20 19 18 17 19 21 22 17 13 15 16 14 11 9 8 6 7 4 7 12 12 10 9 14 15 12 15 15 8 7 7 8 10 12 15 21
23 24 23 24 24 24 24 24 25 25 25 24 24 23 22 20 20 20 20 20 19 19 19 19 20 20 21 21 23 21 13 10 16 19 18 13 10 11 15 18 20 20 18 16 18 23 29 31 29 26 24 21 19 19 16 18 22 23 23 19 15 16 17 18 15 11 9 6 8 8 8 11 11 9 13 17 15 12 14 13 10 7 7 9 10 13 15 17
23 24 24 24 24 24 24 25 25 25 25 26 25 25 24 23 21 21 21 21 20 19 19 20 19 20 21 21 24 18 9 12 16 16 17 14 11 11 13 17 19 19 18 16 17 22 28 30 27 24 21 19 19 19 17 19 21 21 22 22 19 16 16 19 19 14 10 8 10 12 11 12 13 12 18 19 13 14 15 12 10 6 5 9 11 12 15 16
24 24 25 25 25 25 25 25 25 25 26 26 26 26 25 25 24 23 22 22 22 20 20 20 20 21 21 22 24 16 11 18 20 19 19 15 13 12 13 15 18 19 18 17 17 19 25 27 24 20 21 21 19 18 19 22 20 19 20 21 21 18 16 16 18 19 15 11 11 11 10 12 15 16 20 20 15 17 16 11 10 6 6 9 10 11 13 16
24 24 25 25 25 25 26 26 26 26 26 26 26 26 26 26 25 25 24 23 23 22 22 21 21 22 22 25 20 12 14 20 22 23 22 17 13 12 14 15 16 18 19 19 17 17 23 25 21 20 22 19 19 18 19 21 22 22 22 23 23 22 23 19 17 20 20 15 11 9 13 15 15 18 23 20 17 19 16 12 10 8 8 9 10 10 11 15
24 24 25 25 25 25 25 25 25 26 26 26 27 26 26 26 26 26 25 25 24 23 23 22 23 22 25 26 14 10 18 20 22 24 24 20 12 11 13 13 15 16 18 19 17 17 23 25 20 21 21 17 18 18 17 18 19 22 22 22 22 22 27 26 19 18 18 17 13 13 20 19 14 19 26 23 20 22 18 14 12 10 8 8 11 11 11 13
26 26 27 27 27 27 27 26 26 25 25 26 26 27 27 26 26 27 26 26 25 25 24 24 25 24 28 25 11 13 21 21 23 23 23 22 13 10 11 12 14 16 17 19 19 20 23 23 20 21 22 22 20 16 16 19 19 20 20 20 22 23 24 24 22 19 20 20 17 18 24 22 15 20 30 26 22 22 19 17 14 12 10 8 11 11 11 12
27 28 29 29 29 29 29 29 28 27 26 26 25 26 26 26 26 26 26 26 26 26 25 26 26 26 30 24 14 17 22 23 24 19 19 21 17 15 14 12 13 15 16 18 21 23 23 20 22 24 25 25 23 20 21 23 21 20 20 19 22 25 23 21 20 19 21 21 20 20 22 21 15 22 32 26 22 21 19 20 16 14 13 9 10 10 9 11
28 28 29 30 30 30 31 30 30 30 29 28 27 26 25 26 27 27 26 26 26 26 26 27 27 28 29 23 17 18 20 21 19 17 20 20 19 18 15 13 12 15 16 18 22 24 22 21 24 26 26 25 25 25 24 24 23 21 23 21 19 23 25 23 19 20 22 21 23 23 22 19 13 21 31 24 24 24 21 23 21 17 16 11 11 11 10 12
28 29 29 29 29 30 30 31 32 32 31 31 29 27 25 25 26 27 26 25 26 25 27 28 29 29 27 22 17 14 15 17 16 18 22 20 19 18 14 15 14 15 17 17 21 24 22 21 24 25 26 26 26 25 24 27 27 23 25 26 22 21 24 25 22 20 23 24 24 24 24 22 17 23 31 27 27 27 26 27 24 20 18 15 12 12 12 13
28 28 28 28 28 29 29 31 32 33 33 33 32 31 30 28 26 26 25 25 25 25 26 27 29 29 23 22 22 16 13 14 15 18 21 20 19 17 17 18 17 15 17 17 20 23 23 22 23 24 28 30 29 30 30 30 28 25 24 26 25 23 24 26 24 20 22 26 24 24 25 22 17 29 32 28 29 27 26 24 21 21 19 18 16 15 15 14
28 28 27 27 28 28 29 31 32 34 35 35 35 34 31 28 25 25 23 22 23 24 23 24 29 29 21 18 19 19 16 11 11 17 21 22 20 19 20 20 21 18 19 22 23 24 24 24 26 29 34 36 35 36 34 29 25 23 23 24 26 25 24 25 25 21 22 29 28 24 26 21 20 30 28 28 30 25 24 23 24 25 21 22 21 16 16 16
28 26 26 26 27 29 29 31 32 34 35 37 38 36 35 32 28 28 26 20 20 23 25 26 30 34 28 19 16 18 20 16 13 15 19 22 21 20 22 23 24 22 25 28 26 26 26 26 33 38 38 35 35 35 33 28 23 24 25 24 24 26 25 24 25 24 21 29 33 26 25 24 23 28 30 33 33 29 28 26 28 28 24 26 24 17 17 18
26 25 25 25 26 28 28 30 32 33 35 36 39 40 40 39 36 36 35 27 19 19 26 28 31 37 32 24 20 19 21 21 19 17 17 20 22 23 26 28 29 29 30 29 25 24 27 33 40 40 35 31 30 31 31 29 26 27 29 27 24 24 26 24 24 25 21 25 33 28 23 25 24 28 36 35 33 33 32 28 29 30 28 27 25 19 17 18
25 24 25 24 25 26 27 28 30 31 33 34 37 38 37 36 35 36 41 38 26 19 26 30 33 39 34 27 24 22 25 26 23 21 19 20 25 28 29 31 34 34 32 30 28 26 30 41 43 35 30 29 27 28 30 31 29 29 30 30 28 25 25 24 24 25 23 25 31 29 25 25 25 28 36 36 34 35 33 30 29 29 29 27 25 21 18 19
25 25 25 24 24 25 25 26 27 29 31 33 34 35 34 33 32 33 39 44 38 26 26 29 32 36 34 28 25 27 31 30 26 24 22 24 29 29 30 34 36 34 33 34 34 34 36 41 39 33 28 28 29 28 29 31 31 31 31 32 33 30 25 24 24 24 24 25 28 28 27 27 25 27 35 37 35 36 34 31 31 27 23 20 20 21 18 20
26 26 25 25 24 24 25 25 25 27 29 30 30 30 32 30 31 34 36 44 44 29 21 23 28 32 30 25 24 30 34 31 29 26 24 27 30 31 32 34 35 35 34 36 37 39 40 33 26 29 30 29 30 31 30 32 34 35 34 32 33 33 30 27 23 21 23 25 26 28 28 29 30 29 35 38 34 35 37 34 33 28 22 17 19 22 20 18
27 26 26 25 24 24 25 25 24 26 27 27 27 26 27 27 28 31 35 41 37 20 12 14 16 18 20 22 27 32 34 33 32 27 26 28 30 34 34 31 34 37 35 35 36 40 41 30 17 20 29 31 31 33 34 33 33 35 37 35 32 31 31 30 26 22 23 25 28 31 22 22 34 34 34 39 37 37 39 38 36 31 27 23 21 23 22 18
27 26 25 25 25 23 24 25 24 24 24 23 24 24 23 24 24 26 31 33 23 15 13 8 4 5 9 23 28 29 32 37 35 27 26 29 30 32 35 32 33 36 35 32 34 38 40 34 24 19 24 31 33 34 34 34 32 33 34 35 33 31 31 31 30 27 23 21 25 32 20 13 28 34 30 34 39 41 39 38 39 37 33 28 23 24 24 19
28 27 25 25 25 24 23 24 24 23 23 22 23 23 21 21 20 21 22 17 12 12 14 10 8 10 7 12 23 28 27 28 33 34 31 29 30 33 35 35 33 32 33 29 32 39 37 34 32 27 26 30 35 37 35 35 35 33 29 28 31 33 33 32 31 30 26 22 21 33 34 20 23 31 28 28 33 41 43 41 42 42 37 31 26 26 25 20
29 27 26 24 24 25 24 24 23 22 22 22 23 21 19 18 16 15 12 5 6 10 11 9 6 7 9 7 16 25 22 15 18 28 33 33 31 34 37 37 34 31 31 33 36 37 33 35 37 33 31 33 36 38 34 33 35 33 26 23 27 30 32 33 33 31 30 26 21 27 37 24 19 29 31 29 33 37 44 46 46 45 40 33 30 28 25 21
29 28 27 25 24 24 24 24 25 24 23 23 22 19 17 15 12 9 4 3 8 14 11 7 2 2 9 5 11 18 19 14 7 9 20 35 34 34 39 37 33 29 29 36 37 30 26 31 33 33 36 36 33 32 31 32 34 32 26 23 24 26 29 31 31 34 32 23 19 23 27 17 14 30 35 33 37 36 37 42 45 45 41 36 32 29 26 23
29 28 27 26 24 23 22 22 23 23 21 19 18 16 14 11 9 7 1 4 12 19 15 7 4 4 10 10 7 15 19 19 14 5 11 31 35 33 35 32 30 31 30 33 36 32 27 25 27 33 37 36 30 27 28 30 30 29 26 26 25 25 28 28 31 34 25 15 21 30 25 15 10 25 38 38 38 36 34 37 41 43 43 40 34 30 28 27
29 28 27 27 25 23 21 19 18 18 17 16 14 13 12 10 7 2 3 7 14 20 20 14 11 6 6 15 14 8 15 20 21 13 12 25 35 35 33 31 32 33 31 33 35 34 31 27 27 31 34 33 30 27 27 27 29 29 27 28 26 22 24 25 29 30 16 8 23 33 27 20 12 17 35 40 38 37 34 35 38 39 41 41 36 33 32 30
29 28 27 27 25 22 19 17 17 16 15 15 11 11 13 10 4 3 9 16 15 18 25 24 25 20 12 12 14 10 10 17 21 20 18 22 32 37 36 35 34 32 32 34 32 30 35 38 33 28 29 32 33 31 28 27 31 31 29 30 23 13 13 15 14 16 12 8 18 26 23 21 19 19 28 31 31 34 32 34 38 39 40 41 38 36 35 31
30 29 27 26 24 20 17 17 17 17 16 13 9 12 12 6 4 6 14 17 14 18 25 27 30 27 22 18 14 15 13 12 16 19 22 22 27 36 38 37 33 30 30 28 26 27 31 36 37 34 31 32 35 35 31 31 34 35 35 35 24 9 5 7 5 5 8 11 18 22 19 19 24 29 30 25 25 30 28 31 38 38 38 41 40 38 35 31
31 31 28 26 24 20 18 18 19 20 16 10 11 15 10 5 5 9 14 16 17 23 25 28 32 27 25 22 12 16 20 11 10 13 19 24 27 32 36 38 36 31 29 24 25 28 23 24 37 43 35 30 36 39 33 30 33 37 38 35 29 20 10 4 4 4 1 6 19 24 19 19 24 32 34 26 22 29 30 29 33 33 31 35 40 39 35 32
30 31 29 27 24 20 20 20 21 23 16 10 14 15 10 8 9 14 17 20 22 25 27 29 29 27 25 21 16 21 23 11 13 16 14 21 27 30 31 36 38 34 29 24 25 29 24 25 33 39 36 30 32 37 35 29 30 35 36 33 33 33 22 7 6 11 5 2 10 22 24 24 23 26 31 28 24 29 32 30 30 31 30 31 36 37 35 34
28 29 27 26 24 20 18 20 22 21 14 10 12 10 10 12 14 15 17 21 22 23 27 27 23 23 25 26 29 28 20 14 21 19 10 12 20 27 28 31 35 37 35 29 25 24 24 27 26 27 36 37 31 33 36 32 28 30 36 39 34 32 30 16 7 12 11 2 6 18 23 27 26 22 24 27 28 30 33 32 30 30 32 32 34 35 36 36
28 25 22 22 23 20 20 22 22 16 9 9 8 10 11 11 11 14 16 19 21 21 21 21 18 18 22 27 31 29 24 25 27 23 17 9 6 10 14 20 24 27 32 34 33 26 22 26 24 24 33 38 33 31 35 35 30 29 37 41 31 23 28 25 10 6 8 4 9 20 24 23 25 24 24 27 30 32 34 34 32 32 34 36 36 37 38 36
31 23 18 18 20 22 25 23 16 11 8 7 9 11 10 11 12 13 16 19 21 19 16 16 16 16 19 23 26 27 30 29 25 25 22 13 10 10 3 7 8 7 10 21 34 37 29 24 23 28 33 35 35 33 35 39 36 32 33 37 31 21 23 26 14 5 7 3 5 19 27 25 26 30 32 31 32 34 36 36 37 39 40 40 41 39 38 37
31 21 13 16 20 23 23 17 9 8 8 7 11 12 11 13 14 14 16 18 18 16 15 15 16 17 18 20 23 26 26 24 25 26 22 16 20 22 14 6 2 6 7 6 17 32 36 25 20 27 32 33 38 38 39 43 42 36 30 34 38 28 23 27 21 12 7 3 4 10 15 19 27 33 34 32 30 32 35 36 39 44 41 38 39 36 34 36
30 19 7 9 19 19 12 9 9 11 10 10 12 13 12 12 16 18 17 15 15 14 15 15 17 20 20 20 23 24 23 24 26 26 22 20 24 23 15 13 11 4 6 9 4 14 29 29 25 30 30 33 42 44 42 43 44 42 35 32 37 32 25 24 25 24 15 3 2 5 5 11 22 27 30 32 28 28 33 33 36 46 43 36 36 33 30 34
30 20 5 7 15 16 12 9 9 11 10 10 11 13 13 13 17 21 17 14 13 13 13 16 17 18 19 21 23 22 24 27 24 23 24 20 21 23 16 17 23 22 11 2 1 5 10 18 24 33 30 28 41 46 43 41 42 46 41 33 34 35 30 18 14 26 28 14 6 5 5 9 14 17 25 29 25 26 33 30 32 45 45 37 37 35 32 32
30 19 6 8 10 15 20 17 11 11 11 9 9 13 15 15 15 17 16 14 13 12 13 15 15 15 16 18 20 20 23 27 23 21 22 18 21 27 22 18 21 22 25 18 9 7 8 12 21 31 32 26 32 40 42 39 39 44 42 36 33 35 37 25 11 18 28 23 19 14 8 8 7 9 21 28 25 25 30 28 29 38 41 38 38 37 35 31
33 19 5 5 9 10 16 17 12 12 14 11 11 13 14 14 15 16 15 13 12 13 14 14 14 15 15 16 18 18 20 23 20 18 20 20 24 27 23 23 24 20 28 24 9 5 5 10 15 24 30 29 27 32 42 41 37 41 44 41 35 33 37 31 19 18 22 23 22 13 7 10 7 2 12 25 24 23 26 25 25 29 32 36 39 38 36 30
38 26 8 6 9 9 9 11 11 13 15 14 14 16 14 13 13 14 14 13 13 14 14 14 14 15 15 16 18 18 18 19 18 17 20 23 28 28 23 24 26 21 24 22 14 13 10 5 6 11 13 17 19 20 34 43 41 39 43 45 39 32 33 32 26 21 18 23 26 13 5 12 9 5 13 18 18 25 27 19 19 24 25 30 35 35 33 27
42 35 18 10 12 10 6 7 11 15 16 15 16 17 15 13 12 13 14 14 12 11 12 13 14 15 17 17 18 18 16 17 19 19 22 26 31 33 28 23 21 20 21 20 16 15 15 11 10 9 4 5 7 5 16 34 44 40 37 42 43 35 31 32 30 23 15 19 28 22 11 12 11 5 10 12 14 24 24 14 15 22 24 30 33 30 30 28
42 38 29 22 13 5 6 6 7 10 14 17 20 18 15 16 14 14 14 12 9 10 12 14 14 15 16 15 17 18 15 15 17 18 21 26 30 34 32 25 21 20 21 21 14 8 10 12 12 12 12 14 10 4 3 15 35 42 35 35 42 41 35 32 31 28 20 16 24 27 20 13 12 12 10 11 14 21 20 15 19 22 24 32 34 30 31 30
41 35 29 27 17 6 9 8 8 8 11 17 22 19 16 18 17 15 13 10 10 12 14 14 13 13 14 15 17 18 16 16 16 16 20 24 27 33 37 33 28 25 22 20 15 14 16 12 10 12 15 19 19 16 13 14 17 36 40 33 36 43 42 35 31 31 26 17 16 24 25 16 13 14 14 15 16 19 18 17 22 22 22 30 33 31 34 34
41 35 24 20 19 15 13 12 11 12 11 14 19 18 16 17 16 13 12 12 12 13 14 14 12 12 14 14 17 18 17 16 15 16 21 23 26 31 37 40 34 28 25 19 13 18 21 16 14 17 16 14 16 17 15 15 14 18 37 38 35 40 47 43 32 30 32 24 15 20 24 19 15 18 19 19 20 20 16 17 22 20 20 31 32 28 34 39
40 35 24 17 17 18 16 14 13 12 12 12 14 15 16 16 15 14 14 15 15 13 14 15 15 15 15 13 16 18 17 16 16 19 21 21 24 27 29 33 32 24 20 17 11 17 21 21 19 22 20 12 15 16 12 11 12 5 21 36 37 35 43 47 36 26 29 28 21 17 18 17 19 23 22 19 21 20 15 17 22 17 18 32 33 22 27 39
39 33 26 21 17 15 14 13 12 12 12 12 11 11 12 13 14 16 16 17 17 17 16 16 16 17 17 15 16 16 16 16 17 19 20 20 21 22 22 23 24 22 20 20 14 13 19 23 23 26 23 10 13 17 14 9 10 9 6 23 37 37 36 45 44 32 25 28 26 20 16 17 20 21 18 16 18 18 16 20 24 18 15 25 27 19 24 38
36 29 24 24 21 13 12 12 13 14 15 13 13 13 13 13 14 18 19 16 15 16 17 16 17 18 17 18 18 17 16 15 15 16 17 18 19 19 19 20 20 22 24 24 19 13 19 23 23 27 24 12 5 10 14 9 13 16 11 11 27 33 30 37 46 40 28 26 29 24 19 18 17 14 15 17 18 18 20 22 24 20 16 17 18 17 26 39
34 27 21 22 23 15 11 13 16 17 15 14 16 17 18 18 17 17 20 18 13 12 13 15 19 20 19 20 20 18 17 16 16 17 18 19 19 19 21 21 18 19 21 21 22 16 18 23 24 26 24 17 14 11 10 10 13 11 9 7 13 20 20 27 41 44 34 26 29 28 20 16 16 18 21 20 20 22 24 26 24 22 20 18 17 16 22 34
Wind_Direction
322 320 319 318 317 316 315 314 313 311 310 309 307 305 303 301 299 298 298 296 296 294 292 291 289 289 288 289 287 284 279 272 265 252 242 216 209 216 217 216 219 218 217 212 210 210 208 211 206 201 205 207 205 197 204 177 176 229 249 257 271 284 302 288 250 348 293 248 252 190 135 146 134 122 134 144 138 99 111 146 188 208 174 168 168 161 160 162
324 322 321 320 319 318 316 314 313 311 310 309 309 307 304 301 298 297 296 296 296 293 291 289 288 287 286 288 289 287 284 278 270 255 242 221 211 213 215 212 214 217 216 214 212 210 209 209 206 206 207 207 207 193 197 187 191 219 233 248 260 271 290 279 245 254 283 267 181 157 119 142 149 146 154 141 135 130 136 168 192 184 148 155 169 165 164 167
325 323 322 321 320 319 317 315 313 311 310 309 309 308 306 302 299 297 295 295 295 293 291 288 286 285 284 286 288 288 287 285 278 261 244 231 220 215 212 207 208 213 213 212 211 209 207 206 204 208 208 205 204 194 194 185 203 218 222 241 254 272 297 287 252 194 251 285 187 160 127 138 173 171 163 138 145 153 157 180 199 184 146 160 172 170 170 171
324 323 322 321 320 319 317 315 313 312 311 310 309 308 306 303 300 298 296 294 293 291 290 287 286 284 285 284 285 287 289 289 283 270 248 231 222 218 214 209 208 211 210 207 207 204 201 201 200 204 207 206 201 193 199 193 205 220 225 239 252 272 289 280 263 240 226 231 151 147 144 162 188 172 176 160 162 172 176 193 212 209 184 181 176 176 175 174
322 321 320 319 318 317 316 314 313 312 311 310 309 308 306 303 301 298 296 295 292 290 288 286 285 284 285 283 282 284 287 290 286 282 257 230 220 217 216 212 208 207 207 206 204 199 196 197 197 200 204 204 196 195 204 204 210 221 230 246 257 261 274 281 279 250 211 199 172 165 144 155 184 182 204 189 181 188 189 203 212 209 218 206 187 178 176 177
320 319 318 317 316 315 313 311 310 310 309 308 307 307 306 304 301 298 295 294 291 289 286 284 282 282 284 282 282 281 280 284 286 285 276 246 220 213 211 208 206 205 206 205 201 198 193 190 192 197 202 200 193 201 208 203 211 222 232 246 250 254 263 265 283 253 205 207 212 207 146 183 201 199 191 174 190 194 196 220 206 167 176 191 191 179 178 181
319 317 316 315 314 313 311 309 308 308 307 305 304 304 303 302 301 298 295 293 290 288 286 282 280 279 280 281 281 278 277 281 281 276 268 255 227 214 212 208 207 206 208 206 199 197 194 188 189 194 204 204 196 202 206 203 214 224 232 239 238 249 254 245 260 240 201 199 199 195 192 199 195 195 180 171 198 197 194 219 203 158 164 176 191 182 179 184
318 316 315 314 312 311 309 308 306 305 304 302 301 300 299 299 298 297 296 293 289 287 285 281 278 277 276 278 278 276 280 284 274 271 268 255 231 220 220 215 212 209 209 209 203 198 195 191 188 190 205 209 203 201 199 208 222 225 232 239 234 240 247 248 254 236 220 198 189 211 206 189 177 183 181 179 196 196 196 211 200 175 172 171 189 184 178 183
319 317 316 314 312 310 307 306 305 303 302 300 299 297 296 295 294 294 293 292 290 286 284 280 277 275 273 273 272 274 281 273 267 271 273 265 240 220 222 224 219 214 210 207 206 201 198 194 188 190 203 211 213 207 197 212 226 226 230 237 238 239 242 251 255 240 240 217 195 223 224 204 197 184 169 176 190 193 197 207 195 181 174 170 185 187 182 183
323 321 319 317 315 312 309 307 304 302 300 298 297 296 294 293 292 290 289 289 287 286 284 280 277 273 271 269 267 270 271 258 260 265 266 266 254 228 219 226 224 218 211 205 207 205 202 196 188 191 201 212 220 218 209 216 228 231 234 238 236 236 238 247 252 243 241 235 208 207 211 210 207 186 165 168 179 192 201 204 193 191 173 166 179 186 185 186
328 326 324 322 320 317 314 311 308 305 301 298 295 293 292 291 289 287 286 285 283 284 282 279 277 272 269 265 263 265 260 256 257 257 256 255 254 243 222 218 222 219 210 208 209 206 207 195 183 191 205 210 215 225 223 218 228 233 237 241 237 237 236 235 240 239 240 246 230 210 214 217 211 197 181 180 185 195 205 196 183 186 161 155 172 179 179 189
338 336 334 332 329 325 320 316 313 309 305 302 297 294 291 289 287 284 283 281 280 279 279 279 275 272 267 261 262 264 256 254 257 258 258 251 240 241 233 212 213 217 209 210 207 204 206 189 176 195 208 212 212 223 227 221 230 236 240 247 243 238 237 233 224 229 239 245 233 220 231 231 219 204 193 195 190 188 200 192 179 176 154 143 163 176 177 191
357 355 352 350 347 341 336 330 323 317 312 307 302 298 293 289 285 282 280 278 278 276 275 275 272 272 266 261 258 252 250 252 256 257 261 260 230 213 232 216 205 209 207 207 201 202 200 180 177 200 206 216 222 226 224 218 230 240 246 253 248 240 242 239 217 212 231 237 223 220 233 231 219 205 196 196 187 182 193 193 190 188 168 146 155 172 178 189
5 3 0 359 357 353 350 346 340 333 325 316 309 303 297 293 287 282 278 276 275 273 272 271 270 270 264 261 257 247 247 246 249 252 259 264 250 224 236 223 207 204 202 203 195 192 189 175 185 207 209 215 224 229 226 223 234 242 245 246 242 244 248 234 211 210 225 229 224 221 232 233 230 210 193 188 186 184 188 188 195 197 185 167 159 168 179 191
1 360 358 356 355 353 351 349 347 344 340 333 324 313 304 297 290 284 279 275 272 271 270 268 267 267 264 263 255 244 243 243 249 255 257 260 257 249 251 237 214 204 199 200 197 185 179 185 199 211 216 216 219 226 229 233 239 239 241 241 234 238 247 233 214 217 223 226 223 219 229 237 238 205 187 183 185 183 181 182 195 200 193 188 176 177 182 188
355 354 353 351 351 351 349 347 346 344 343 340 337 330 318 306 295 287 282 276 271 269 267 266 264 264 266 266 257 246 246 249 254 254 250 251 246 239 245 246 220 203 198 195 198 186 178 196 209 213 216 216 218 224 232 241 241 231 232 240 231 227 237 239 231 222 222 223 216 216 221 226 230 197 182 178 182 177 170 178 190 196 197 201 192 192 196 191
349 350 349 348 350 350 349 348 346 345 343 341 339 335 331 323 308 294 287 281 274 268 265 264 263 261 262 263 255 244 241 241 237 237 240 241 238 226 217 235 229 204 197 192 194 188 182 198 211 216 216 216 218 220 228 236 236 228 224 230 231 226 225 231 235 228 223 219 212 212 216 229 234 193 175 168 174 172 168 181 193 194 198 209 208 201 201 197
344 346 347 347 349 351 351 350 349 348 347 345 342 338 335 331 319 303 291 284 277 269 264 262 261 260 258 254 247 235 231 233 225 226 234 234 232 219 197 215 233 214 199 199 199 193 189 198 210 218 219 217 215 214 221 223 222 224 221 219 225 231 228 227 231 230 219 213 213 208 211 233 212 173 166 166 171 172 174 191 201 197 200 210 219 216 204 201
342 344 347 347 349 351 351 350 350 350 350 350 347 342 334 325 318 310 299 288 281 271 265 262 256 252 249 248 243 228 217 220 230 226 226 225 223 212 190 199 224 220 203 205 208 201 197 200 209 216 218 217 213 212 218 219 217 218 219 217 218 226 233 232 232 234 224 209 209 205 206 223 198 173 172 173 173 179 190 203 203 200 202 205 215 218 206 205
340 343 345 346 348 349 349 348 349 350 350 350 348 346 340 332 326 317 308 295 284 275 265 260 258 252 244 241 239 224 206 197 220 232 226 221 215 203 186 191 212 215 207 207 209 206 202 207 213 215 216 216 216 214 215 219 219 219 224 227 220 219 227 232 232 235 230 207 200 200 206 217 207 186 180 176 177 187 201 206 203 203 202 201 210 212 203 204
338 340 343 345 346 346 348 346 347 348 348 349 349 351 350 345 338 326 314 296 280 279 269 259 257 254 243 232 227 223 213 203 208 217 223 218 204 195 187 189 202 208 208 207 208 210 208 215 218 216 215 216 217 218 216 216 219 223 231 238 232 222 222 228 233 234 230 209 197 195 206 217 209 189 183 185 188 194 205 212 208 205 203 207 213 211 205 200
336 338 340 342 344 344 347 346 345 346 346 347 350 353 352 347 342 333 321 306 288 286 278 261 254 254 246 231 221 219 221 218 212 207 212 211 199 194 191 192 201 205 206 202 204 209 213 221 220 215 217 216 217 219 218 217 219 225 232 241 245 238 230 227 230 237 235 215 201 193 198 210 214 203 193 198 205 205 212 220 217 208 208 216 215 208 208 199
335 336 337 340 341 341 345 346 345 344 344 348 351 353 350 344 339 330 325 314 302 299 292 273 256 253 248 234 218 217 224 224 219 209 203 207 203 196 194 197 203 205 204 202 201 204 214 225 222 214 216 217 216 216 217 219 220 224 229 237 244 242 242 238 227 236 241 224 206 198 199 207 219 218 203 205 216 211 209 218 218 214 218 224 214 209 215 207
333 334 335 337 338 340 342 345 347 345 345 349 350 350 347 342 336 329 324 320 316 319 311 282 260 254 252 241 221 220 228 226 218 209 201 209 206 197 197 201 205 205 205 206 205 207 215 226 225 216 214 216 218 216 215 218 219 223 225 228 237 238 241 245 234 231 238 234 218 203 202 207 213 217 207 207 214 206 202 209 210 214 225 225 212 212 220 216
333 333 332 333 336 339 339 342 347 347 348 348 347 349 344 340 337 330 325 324 329 347 342 299 274 264 251 235 222 218 225 226 219 207 201 212 212 200 198 204 208 208 207 207 209 215 218 220 226 223 214 212 217 218 215 216 218 222 223 223 229 235 237 244 247 239 230 232 219 203 200 205 209 216 211 204 202 198 201 208 210 215 217 212 208 210 214 214
333 332 331 331 333 337 338 340 345 348 347 346 347 348 344 342 338 332 331 325 331 13 19 358 358 329 246 224 219 213 221 227 221 208 199 210 219 208 200 204 211 211 209 209 212 220 222 217 218 227 219 211 215 219 217 215 219 223 223 222 223 231 238 241 251 255 241 231 215 203 205 208 203 213 221 210 202 200 205 212 215 218 212 206 208 209 208 207
335 332 332 332 331 334 337 338 344 348 345 346 352 350 346 347 340 337 340 322 317 9 24 24 29 16 347 243 219 204 215 230 222 213 203 202 213 213 207 205 210 212 207 207 217 223 223 217 214 219 222 215 214 219 217 214 220 225 223 223 223 228 235 240 249 259 256 253 237 210 207 213 205 207 218 218 208 203 206 213 217 216 212 211 212 209 206 208
335 333 333 332 332 334 335 337 341 344 346 351 355 352 352 352 342 345 355 323 332 16 20 9 5 33 30 308 241 211 211 232 229 222 211 201 205 211 214 210 209 213 206 205 218 223 219 217 213 211 218 220 218 219 217 214 220 224 221 220 224 226 232 239 245 255 259 262 262 220 203 205 211 208 211 215 214 207 203 207 212 211 212 215 214 208 205 210
336 334 332 332 334 334 333 335 338 343 350 354 355 354 356 356 348 356 2 282 359 13 3 347 303 50 56 11 264 235 223 220 235 263 220 204 203 208 216 216 210 215 215 212 221 226 222 225 220 212 216 222 224 223 219 216 219 221 219 218 224 225 228 235 240 251 260 261 268 245 212 201 210 211 211 208 210 214 209 206 209 212 216 218 215 211 208 209
337 336 333 332 333 332 333 335 337 342 349 351 354 353 357 7 359 356 320 272 339 350 336 307 284 357 40 25 299 243 235 224 213 279 238 205 201 207 217 221 216 218 224 223 225 227 225 230 228 219 217 218 223 227 220 218 218 217 218 221 228 229 224 228 233 245 260 259 257 257 239 235 227 207 211 212 211 216 217 212 212 215 220 218 218 221 215 210
338 337 336 334 332 331 332 333 331 334 345 353 352 352 8 27 17 344 249 293 322 337 335 320 308 309 359 360 343 267 246 241 219 219 241 213 202 204 212 217 217 219 227 230 229 229 227 228 226 223 221 216 218 225 220 216 215 213 214 219 229 234 223 219 222 230 246 252 249 255 252 254 258 209 211 216 213 210 215 221 219 218 220 216 218 226 221 211
336 336 339 335 331 330 326 322 325 334 350 354 346 3 21 22 9 249 291 317 321 335 345 337 322 312 302 325 341 331 285 256 238 228 232 222 208 206 208 210 212 215 224 229 227 227 228 228 226 225 225 217 215 222 219 210 210 210 210 213 218 223 218 213 208 217 229 233 240 249 254 255 260 244 226 218 208 205 216 230 228 224 223 219 218 223 218 210
333 335 337 335 332 331 324 321 333 347 353 348 357 24 21 354 324 289 305 322 313 317 337 342 333 320 307 310 323 337 322 263 253 248 235 228 218 212 211 211 212 215 222 226 226 224 226 229 226 224 225 217 211 217 214 202 203 206 207 208 206 194 198 211 200 213 229 226 226 236 249 254 252 250 242 230 216 213 220 229 227 225 225 223 224 222 214 209
331 332 332 334 334 328 329 335 345 352 347 343 13 16 353 296 312 317 310 312 300 303 321 335 336 327 318 315 311 343 340 287 268 285 253 235 225 217 214 214 215 219 223 225 226 226 224 225 222 220 222 218 211 212 211 203 202 205 207 208 209 208 204 193 202 208 163 205 215 218 228 239 238 240 240 241 232 221 225 232 228 227 228 229 229 223 212 210
331 330 327 332 335 329 337 345 349 350 337 342 11 5 335 307 325 334 328 322 315 315 318 321 323 324 324 315 309 349 357 318 307 319 272 236 224 216 213 214 214 218 224 226 228 229 230 232 228 222 218 216 215 212 208 207 205 204 207 212 215 213 210 212 228 216 193 101 210 210 218 227 233 240 238 240 238 222 226 240 235 228 231 230 225 221 216 215
335 329 326 331 333 334 345 348 350 347 337 357 6 338 324 322 322 330 331 327 326 329 329 325 321 320 319 320 326 342 356 340 333 329 293 247 230 221 219 219 217 219 224 228 229 228 232 237 234 226 219 215 215 213 207 207 207 200 203 211 215 211 210 220 233 210 204 237 228 219 226 227 229 240 234 230 234 222 220 235 234 226 230 228 219 219 222 220
341 335 327 330 334 339 346 348 350 347 355 24 350 304 321 325 317 328 330 323 320 326 333 328 324 318 311 320 331 334 335 338 340 333 324 321 269 236 218 212 216 223 229 235 238 236 243 248 236 223 220 213 208 211 210 209 209 201 201 208 209 204 211 222 228 189 193 221 222 220 230 226 217 225 226 220 226 223 219 226 223 211 211 216 217 220 225 224
348 344 331 335 339 336 339 343 352 2 17 13 317 306 321 316 316 324 322 318 315 319 327 318 313 311 308 318 323 322 328 333 332 329 332 349 5 359 348 200 207 216 231 242 241 237 242 260 247 225 221 213 206 208 208 209 213 210 204 203 200 195 204 213 217 203 193 208 218 215 223 224 217 221 224 219 219 221 220 222 220 209 203 208 215 219 224 226
352 353 353 355 338 327 338 347 352 3 359 327 312 320 318 312 316 305 301 316 323 319 314 309 307 306 312 320 312 312 324 327 324 324 327 341 341 337 337 328 245 164 158 214 247 239 236 252 260 233 221 211 206 208 207 205 209 214 210 199 199 206 207 204 209 217 209 205 223 217 218 222 224 227 228 225 219 216 218 220 220 217 213 213 216 219 223 224
353 352 11 356 322 318 342 347 328 332 322 301 308 315 309 311 318 311 309 320 321 311 307 309 305 303 310 306 298 310 320 316 320 320 315 324 330 332 352 17 9 9 169 173 213 247 236 241 253 244 228 206 202 208 208 203 202 208 212 200 194 203 208 206 212 217 221 239 204 213 232 228 230 234 235 231 220 207 209 217 218 215 215 217 220 224 225 220
352 346 317 265 293 318 333 319 325 333 309 293 305 312 313 314 316 318 322 320 308 299 302 305 297 298 306 296 294 311 313 309 319 321 312 316 324 325 342 10 6 8 21 135 184 330 265 245 247 250 246 216 203 206 208 205 201 204 212 208 196 194 195 195 207 211 216 232 241 229 271 252 232 234 239 232 215 199 199 208 213 210 211 215 220 224 222 214
353 352 323 277 307 337 328 316 325 328 306 297 315 322 319 313 311 314 317 319 317 304 293 290 287 295 305 299 301 310 307 309 318 318 312 312 309 302 304 331 349 4 9 350 315 327 306 249 239 246 249 236 216 208 206 206 203 203 211 214 205 196 194 194 194 198 203 219 242 253 266 269 260 249 240 225 204 194 195 199 207 207 209 214 214 217 218 210
353 353 329 309 345 338 310 310 323 321 314 311 315 318 315 312 312 312 314 318 319 311 298 290 289 297 304 302 304 309 311 314 315 316 321 317 299 286 286 309 321 343 0 352 327 316 278 224 238 250 247 247 240 216 204 203 201 202 209 214 213 203 198 201 203 197 193 204 226 247 260 257 286 348 208 204 195 191 191 194 206 210 213 215 214 213 211 202
347 344 316 262 302 292 281 309 322 319 320 319 313 312 312 315 313 309 314 317 311 309 302 294 291 294 300 302 301 305 313 314 311 320 327 309 286 274 276 299 312 333 354 350 337 325 305 250 280 284 256 253 257 223 196 194 197 203 207 211 216 212 202 202 206 207 202 203 209 216 251 248 255 90 140 170 185 189 184 186 206 212 212 210 210 208 200 194
344 344 332 287 287 286 279 311 313 314 322 320 318 319 317 317 316 312 311 306 304 307 300 295 296 293 297 301 300 302 306 308 313 321 319 298 279 273 272 285 310 334 343 339 331 316 302 290 293 299 272 234 253 215 180 187 194 202 208 209 212 216 208 199 202 209 210 204 206 211 229 233 226 189 145 142 163 178 178 178 197 206 206 201 203 205 195 194
346 345 336 322 315 267 229 266 291 313 329 324 320 322 319 315 316 313 307 302 307 310 301 300 300 295 296 300 303 306 307 309 317 321 313 300 288 279 270 272 298 320 331 337 340 337 325 305 289 287 273 258 263 285 250 206 197 196 203 209 209 214 216 205 199 206 209 203 203 209 215 207 196 200 183 160 163 168 169 175 184 197 207 201 204 210 203 199
345 345 336 325 320 255 228 252 267 295 329 327 317 315 314 316 318 316 314 314 314 311 305 304 303 301 302 306 308 312 314 316 321 320 311 305 299 283 265 265 283 298 313 335 356 11 0 336 312 312 289 271 275 276 283 290 232 198 197 208 208 208 215 215 204 202 206 206 200 206 210 198 179 185 183 174 172 164 163 177 184 190 201 199 200 207 205 201
344 344 338 319 301 280 276 289 294 306 323 318 311 311 313 316 317 319 321 316 310 313 313 310 310 306 303 309 314 313 316 320 320 314 309 309 309 293 270 261 268 282 300 321 3 14 358 343 339 336 316 281 268 262 261 291 291 211 195 205 210 204 209 216 213 201 203 211 209 202 205 198 177 176 177 173 171 167 166 183 190 191 196 198 200 205 206 202
344 342 338 319 291 277 286 304 309 312 314 309 310 316 318 318 317 316 318 315 311 309 305 304 308 302 294 303 313 310 313 320 314 306 310 314 317 313 294 272 260 265 291 311 356 20 358 343 349 349 333 289 244 244 252 280 305 263 192 203 212 209 206 211 217 209 202 209 213 201 197 196 184 178 176 175 176 177 176 184 191 193 196 197 200 207 206 202
346 342 336 326 307 280 280 299 305 299 301 308 313 312 310 316 319 315 313 315 312 307 301 302 306 304 298 302 306 303 309 314 305 300 308 314 316 318 316 298 273 263 280 299 322 9 1 344 351 358 345 302 231 239 252 275 305 311 235 209 212 214 208 205 211 217 206 200 205 202 181 171 176 177 178 180 177 177 184 188 187 185 188 195 198 202 201 199
347 342 332 325 323 304 277 284 295 298 304 312 311 306 301 305 309 309 309 308 304 306 310 308 306 305 302 303 304 303 305 303 297 298 302 302 303 302 302 305 298 285 284 291 299 333 354 344 352 1 349 334 322 282 257 274 309 298 282 223 205 211 211 201 205 217 216 197 197 202 185 164 162 167 176 182 174 161 158 163 167 166 168 177 178 182 193 196
346 341 331 322 324 320 285 280 291 297 306 313 313 313 313 311 310 310 311 306 292 292 302 304 308 309 304 302 304 305 305 302 296 297 296 291 291 292 292 297 303 296 287 286 289 310 343 338 343 353 339 328 355 343 263 273 317 302 272 252 207 202 206 198 199 209 218 203 192 199 197 173 162 165 165 169 172 163 149 144 148 153 155 157 158 164 186 195
Height
3143 3142 3141 3140 3139 3138 3137 3136 3135 3134 3133 3132 3131 3131 3130 3128 3127 3126 3126 3126 3126 3126 3125 3124 3123 3122 3122 3122 3123 3123 3123 3123 3123 3124 3126 3127 3127 3128 3129 3131 3133 3134 3135 3137 3139 3140 3143 3145 3147 3150 3151 3152 3154 3154 3155 3156 3159 3161 3160 3160 3159 3159 3159 3160 3161 3161 3163 3163 3164 3165 3165 3166 3166 3167 3167 3167 3167 3167 3167 3167 3166 3166 3167 3168 3169 3170 3170 3171
3142 3141 3140 3139 3138 3137 3136 3135 3133 3132 3131 3130 3130 3129 3128 3127 3126 3125 3124 3124 3124 3124 3123 3122 3121 3121 3120 3120 3120 3121 3121 3121 3121 3122 3124 3124 3124 3125 3127 3130 3131 3132 3133 3135 3137 3140 3142 3144 3146 3148 3149 3151 3153 3154 3154 3156 3158 3160 3160 3159 3158 3159 3160 3160 3160 3161 3162 3163 3164 3164 3164 3166 3167 3167 3168 3167 3167 3168 3168 3167 3165 3165 3166 3167 3169 3170 3171 3171
3141 3140 3139 3138 3137 3136 3135 3133 3132 3131 3130 3129 3128 3127 3127 3126 3124 3124 3123 3122 3122 3122 3121 3121 3120 3119 3119 3119 3119 3118 3118 3119 3119 3120 3121 3122 3123 3125 3126 3127 3129 3130 3132 3134 3136 3139 3141 3143 3145 3146 3148 3150 3151 3152 3153 3155 3157 3159 3159 3159 3157 3159 3160 3160 3161 3161 3162 3162 3163 3164 3164 3166 3167 3167 3167 3167 3168 3168 3168 3165 3163 3165 3166 3167 3168 3169 3170 3171
3140 3139 3138 3137 3136 3135 3133 3132 3131 3130 3129 3128 3127 3126 3125 3124 3123 3122 3121 3121 3120 3120 3119 3119 3118 3117 3117 3118 3117 3117 3116 3116 3117 3118 3119 3119 3122 3124 3124 3126 3127 3129 3130 3132 3134 3136 3139 3142 3143 3145 3147 3148 3150 3151 3153 3154 3156 3158 3158 3157 3157 3158 3159 3160 3161 3161 3161 3162 3163 3164 3164 3166 3167 3166 3167 3167 3167 3167 3167 3165 3164 3165 3166 3167 3168 3169 3170 3171
3139 3138 3137 3136 3135 3133 3132 3131 3130 3129 3127 3126 3125 3124 3123 3122 3121 3120 3120 3119 3118 3118 3118 3117 3116 3115 3115 3116 3116 3116 3116 3115 3114 3117 3117 3117 3120 3122 3124 3125 3126 3127 3129 3130 3131 3134 3136 3139 3141 3143 3144 3146 3148 3150 3151 3153 3156 3157 3157 3156 3157 3158 3159 3160 3160 3160 3161 3161 3163 3163 3162 3164 3166 3166 3167 3166 3166 3167 3166 3166 3166 3167 3167 3167 3168 3169 3170 3171
3138 3137 3135 3134 3133 3132 3131 3129 3128 3127 3126 3125 3124 3123 3122 3120 3119 3118 3118 3117 3117 3116 3116 3115 3114 3114 3114 3113 3114 3114 3115 3114 3113 3114 3116 3117 3118 3120 3122 3123 3124 3126 3126 3127 3129 3131 3133 3136 3139 3140 3142 3145 3147 3148 3150 3153 3155 3156 3156 3156 3157 3158 3159 3160 3160 3160 3160 3161 3162 3162 3161 3164 3165 3165 3166 3166 3165 3167 3166 3165 3167 3168 3168 3168 3168 3169 3170 3171
3136 3135 3134 3133 3131 3130 3129 3127 3126 3125 3124 3123 3122 3121 3120 3119 3118 3117 3116 3115 3115 3114 3114 3113 3112 3112 3112 3111 3112 3112 3113 3114 3112 3112 3114 3116 3117 3119 3120 3121 3123 3124 3124 3126 3127 3129 3131 3133 3135 3138 3141 3143 3145 3147 3149 3152 3154 3155 3155 3156 3157 3158 3158 3159 3160 3160 3160 3160 3161 3161 3161 3163 3164 3163 3165 3166 3166 3166 3166 3165 3166 3169 3168 3168 3169 3169 3171 3171
3134 3133 3132 3130 3129 3128 3126 3125 3124 3123 3122 3121 3120 3119 3118 3117 3116 3115 3114 3113 3113 3112 3112 3111 3110 3110 3110 3110 3110 3110 3112 3113 3111 3110 3113 3115 3116 3117 3118 3119 3121 3122 3123 3125 3126 3128 3129 3131 3133 3137 3140 3141 3144 3147 3149 3151 3153 3153 3154 3155 3156 3157 3157 3158 3159 3159 3159 3160 3160 3160 3161 3162 3162 3163 3164 3165 3166 3166 3166 3165 3167 3168 3169 3168 3169 3170 3171 3172
3132 3131 3129 3128 3127 3125 3124 3123 3122 3120 3119 3118 3117 3116 3116 3115 3114 3113 3112 3111 3111 3110 3110 3109 3109 3108 3108 3108 3107 3108 3111 3111 3109 3109 3111 3113 3114 3115 3116 3117 3118 3120 3122 3124 3125 3127 3128 3129 3132 3136 3139 3142 3144 3146 3148 3149 3150 3151 3152 3153 3154 3155 3156 3156 3156 3157 3158 3159 3159 3160 3161 3161 3161 3162 3162 3162 3163 3165 3165 3165 3167 3168 3169 3169 3169 3170 3171 3172
3130 3129 3127 3126 3125 3123 3122 3120 3119 3118 3117 3115 3114 3114 3113 3113 3112 3111 3110 3109 3108 3108 3108 3107 3106 3106 3106 3106 3105 3108 3110 3108 3107 3108 3109 3111 3112 3114 3115 3115 3116 3118 3120 3122 3123 3124 3126 3128 3131 3136 3139 3142 3144 3145 3147 3147 3148 3150 3151 3151 3152 3153 3154 3154 3154 3155 3156 3158 3158 3159 3160 3160 3160 3161 3161 3161 3162 3163 3164 3165 3167 3168 3168 3169 3170 3170 3171 3172
3129 3127 3125 3124 3122 3121 3119 3118 3116 3115 3114 3113 3111 3111 3110 3109 3109 3108 3108 3107 3106 3106 3105 3104 3104 3104 3104 3103 3103 3106 3108 3106 3105 3106 3106 3109 3110 3111 3112 3113 3114 3116 3118 3120 3122 3123 3126 3128 3132 3137 3139 3140 3142 3144 3145 3146 3147 3148 3150 3150 3150 3151 3151 3152 3153 3153 3154 3156 3158 3158 3158 3159 3160 3158 3156 3158 3161 3162 3163 3165 3167 3168 3168 3169 3169 3170 3171 3172
3127 3125 3123 3122 3120 3119 3117 3115 3114 3112 3111 3110 3108 3107 3107 3106 3105 3105 3105 3104 3103 3103 3103 3102 3101 3101 3101 3100 3102 3105 3105 3103 3103 3103 3103 3106 3108 3109 3110 3111 3113 3115 3117 3119 3120 3123 3125 3127 3131 3135 3137 3138 3140 3142 3143 3144 3145 3146 3147 3148 3149 3149 3149 3150 3152 3153 3153 3155 3157 3158 3157 3156 3158 3157 3151 3153 3158 3160 3162 3165 3166 3167 3168 3168 3169 3170 3171 3172
3126 3124 3122 3120 3119 3117 3115 3113 3111 3110 3108 3107 3105 3104 3103 3103 3102 3101 3101 3101 3100 3100 3100 3099 3098 3098 3097 3096 3101 3104 3101 3101 3101 3100 3100 3102 3106 3107 3108 3110 3111 3113 3115 3117 3119 3122 3124 3126 3129 3133 3136 3138 3139 3140 3141 3143 3144 3144 3145 3145 3146 3147 3146 3147 3150 3151 3152 3153 3155 3156 3156 3154 3156 3156 3149 3148 3153 3156 3160 3164 3165 3166 3167 3168 3168 3169 3170 3171
3125 3123 3121 3119 3117 3115 3113 3111 3109 3108 3106 3104 3102 3101 3100 3099 3098 3097 3097 3097 3097 3097 3097 3096 3095 3095 3092 3094 3100 3100 3098 3099 3098 3098 3099 3100 3103 3105 3107 3109 3110 3112 3113 3116 3118 3121 3123 3125 3129 3132 3134 3135 3137 3140 3140 3140 3142 3142 3143 3142 3143 3143 3142 3144 3147 3149 3150 3152 3154 3154 3153 3152 3154 3154 3148 3145 3149 3152 3156 3161 3163 3164 3165 3167 3168 3168 3169 3170
3125 3123 3120 3118 3116 3114 3112 3110 3108 3106 3104 3102 3100 3098 3097 3096 3094 3094 3093 3093 3094 3093 3093 3092 3092 3091 3089 3092 3097 3096 3095 3095 3096 3099 3099 3099 3102 3103 3105 3107 3109 3111 3112 3115 3117 3119 3122 3125 3127 3129 3131 3133 3135 3136 3137 3137 3138 3139 3139 3139 3140 3140 3140 3141 3144 3146 3148 3149 3151 3152 3151 3150 3152 3152 3146 3145 3147 3150 3154 3158 3161 3163 3165 3166 3167 3168 3168 3169
3124 3121 3119 3117 3115 3112 3110 3108 3106 3104 3102 3100 3098 3096 3094 3092 3090 3090 3089 3089 3090 3090 3089 3088 3088 3088 3087 3089 3092 3093 3093 3094 3096 3098 3098 3099 3101 3102 3104 3105 3107 3110 3111 3113 3115 3117 3120 3123 3125 3126 3128 3130 3131 3133 3134 3134 3134 3136 3136 3136 3137 3139 3140 3140 3141 3143 3145 3147 3148 3149 3149 3148 3150 3151 3147 3146 3147 3149 3153 3156 3160 3162 3163 3164 3165 3167 3168 3168
3123 3120 3118 3115 3113 3111 3108 3106 3103 3101 3099 3097 3095 3093 3091 3089 3087 3085 3086 3086 3085 3086 3086 3084 3084 3084 3084 3086 3088 3090 3091 3092 3094 3094 3095 3097 3099 3101 3103 3103 3105 3108 3110 3112 3114 3115 3117 3120 3122 3123 3125 3126 3128 3130 3131 3130 3129 3132 3134 3135 3136 3137 3139 3139 3139 3139 3142 3144 3145 3147 3147 3146 3147 3147 3147 3146 3146 3148 3151 3155 3159 3161 3161 3162 3164 3166 3167 3167
3121 3119 3117 3114 3112 3110 3107 3104 3101 3099 3097 3094 3092 3089 3088 3087 3084 3082 3082 3082 3081 3082 3081 3080 3080 3080 3081 3082 3084 3087 3088 3089 3091 3091 3093 3095 3097 3099 3101 3103 3104 3106 3109 3110 3112 3113 3115 3117 3120 3121 3121 3121 3123 3125 3124 3123 3126 3130 3131 3133 3135 3136 3136 3136 3136 3136 3138 3140 3142 3144 3145 3145 3146 3144 3144 3146 3146 3147 3150 3154 3157 3158 3159 3160 3161 3163 3165 3166
3119 3117 3115 3112 3110 3108 3105 3102 3100 3097 3094 3092 3090 3088 3086 3084 3082 3079 3078 3079 3078 3077 3078 3076 3075 3076 3077 3079 3080 3083 3084 3086 3087 3088 3090 3092 3095 3096 3098 3102 3103 3104 3106 3107 3108 3110 3112 3115 3116 3115 3114 3114 3117 3119 3120 3123 3127 3129 3129 3131 3132 3133 3134 3133 3133 3133 3135 3137 3138 3141 3142 3143 3146 3144 3143 3144 3145 3147 3149 3150 3152 3153 3155 3157 3158 3160 3162 3164
3117 3115 3113 3111 3108 3106 3103 3101 3098 3095 3092 3089 3087 3084 3080 3077 3076 3073 3072 3075 3075 3074 3073 3072 3070 3070 3075 3078 3079 3079 3080 3081 3082 3085 3087 3089 3092 3094 3096 3100 3102 3102 3102 3103 3105 3108 3110 3111 3108 3105 3107 3112 3115 3117 3121 3124 3127 3127 3127 3128 3130 3131 3131 3131 3130 3129 3133 3134 3134 3138 3140 3142 3144 3142 3141 3142 3143 3145 3146 3147 3147 3148 3151 3153 3154 3157 3159 3161
3116 3114 3112 3109 3107 3105 3102 3099 3096 3093 3090 3087 3083 3080 3076 3073 3071 3067 3064 3066 3071 3071 3068 3068 3067 3064 3069 3076 3077 3077 3077 3077 3078 3081 3084 3086 3089 3091 3092 3095 3098 3097 3097 3101 3104 3106 3108 3105 3099 3101 3107 3112 3115 3118 3121 3123 3125 3125 3124 3125 3126 3127 3128 3129 3128 3127 3130 3132 3131 3134 3137 3139 3141 3140 3137 3138 3140 3141 3142 3144 3144 3145 3148 3151 3153 3154 3157 3159
3115 3113 3110 3108 3106 3103 3101 3098 3095 3092 3090 3087 3083 3079 3077 3075 3073 3069 3062 3056 3061 3067 3063 3062 3062 3059 3065 3072 3074 3075 3074 3073 3075 3077 3081 3084 3085 3087 3089 3091 3092 3093 3095 3100 3102 3104 3103 3096 3095 3103 3109 3112 3114 3116 3119 3120 3122 3123 3122 3122 3122 3123 3125 3126 3126 3125 3127 3130 3129 3130 3133 3136 3139 3139 3135 3134 3136 3137 3139 3141 3142 3144 3147 3149 3150 3151 3154 3156
3113 3111 3109 3106 3104 3102 3100 3097 3094 3091 3089 3086 3082 3079 3077 3075 3073 3070 3066 3054 3051 3058 3057 3055 3056 3056 3060 3067 3071 3071 3067 3070 3073 3074 3078 3080 3081 3084 3086 3088 3089 3091 3094 3095 3096 3097 3094 3089 3094 3104 3107 3109 3112 3114 3116 3118 3119 3120 3120 3120 3119 3119 3122 3122 3123 3123 3124 3127 3128 3128 3130 3132 3136 3138 3135 3133 3134 3135 3137 3139 3140 3143 3145 3145 3147 3149 3151 3153
3112 3109 3107 3105 3102 3100 3098 3096 3093 3090 3087 3084 3082 3080 3077 3075 3072 3068 3064 3056 3049 3051 3051 3049 3050 3052 3057 3064 3068 3066 3064 3067 3070 3071 3075 3077 3079 3082 3083 3085 3087 3088 3089 3090 3092 3091 3088 3089 3096 3102 3104 3107 3108 3110 3113 3114 3115 3116 3116 3117 3117 3117 3118 3118 3121 3123 3122 3123 3125 3126 3127 3128 3131 3133 3132 3131 3133 3133 3134 3137 3138 3140 3142 3143 3145 3147 3149 3150
3109 3107 3105 3103 3100 3098 3096 3094 3092 3088 3085 3083 3081 3080 3077 3075 3073 3068 3062 3055 3049 3048 3048 3046 3046 3050 3055 3059 3061 3061 3063 3064 3066 3069 3073 3074 3077 3078 3081 3084 3084 3084 3086 3088 3090 3088 3087 3092 3096 3098 3100 3103 3104 3106 3108 3109 3111 3112 3112 3114 3116 3116 3116 3116 3117 3120 3120 3118 3120 3123 3123 3125 3126 3129 3129 3128 3131 3132 3131 3133 3135 3137 3139 3141 3142 3144 3146 3148
3107 3105 3103 3100 3098 3096 3094 3091 3090 3087 3084 3083 3080 3078 3077 3074 3072 3069 3063 3056 3051 3048 3047 3047 3048 3050 3052 3053 3054 3059 3061 3058 3062 3069 3070 3072 3075 3077 3079 3080 3080 3081 3084 3088 3089 3086 3085 3091 3095 3095 3096 3099 3101 3102 3103 3106 3108 3107 3108 3112 3114 3115 3115 3114 3114 3116 3117 3115 3117 3119 3120 3121 3123 3125 3128 3127 3128 3130 3130 3131 3132 3133 3135 3137 3138 3141 3143 3145
3106 3103 3101 3098 3095 3094 3092 3089 3087 3085 3083 3082 3079 3077 3075 3073 3071 3069 3065 3059 3053 3051 3050 3050 3052 3052 3052 3053 3054 3057 3056 3054 3061 3066 3066 3069 3072 3074 3075 3075 3077 3079 3083 3087 3085 3079 3082 3088 3091 3092 3094 3095 3096 3096 3099 3103 3104 3103 3107 3111 3113 3113 3112 3112 3112 3112 3113 3114 3114 3114 3115 3117 3118 3120 3124 3125 3125 3127 3128 3129 3129 3131 3132 3133 3136 3138 3140 3142
3104 3101 3099 3097 3094 3091 3089 3087 3086 3084 3082 3079 3077 3076 3074 3072 3071 3069 3069 3065 3056 3054 3054 3053 3054 3053 3052 3053 3053 3054 3054 3055 3059 3061 3063 3066 3069 3071 3071 3072 3075 3077 3080 3082 3076 3074 3080 3082 3084 3088 3091 3090 3090 3092 3096 3101 3101 3102 3107 3109 3110 3112 3111 3110 3111 3110 3111 3112 3110 3109 3111 3111 3112 3115 3119 3122 3122 3122 3123 3125 3127 3128 3129 3132 3135 3136 3138 3141
3102 3100 3097 3095 3093 3090 3087 3085 3083 3081 3079 3076 3075 3074 3073 3072 3070 3069 3072 3068 3058 3055 3057 3055 3053 3052 3050 3052 3054 3054 3055 3057 3059 3060 3062 3063 3065 3067 3068 3069 3074 3076 3077 3077 3073 3076 3079 3079 3082 3086 3086 3086 3087 3091 3095 3098 3098 3101 3106 3107 3108 3109 3109 3110 3109 3109 3109 3107 3105 3106 3108 3108 3108 3111 3114 3117 3117 3116 3117 3121 3124 3125 3127 3130 3133 3134 3136 3139
3101 3098 3096 3094 3092 3089 3086 3084 3081 3079 3077 3076 3075 3074 3072 3071 3069 3070 3073 3067 3058 3057 3057 3055 3053 3051 3049 3050 3052 3055 3056 3056 3057 3059 3060 3061 3063 3066 3067 3070 3074 3075 3075 3075 3074 3076 3078 3079 3082 3081 3081 3084 3088 3090 3092 3094 3097 3101 3103 3104 3105 3106 3108 3108 3107 3109 3108 3102 3099 3102 3105 3107 3106 3107 3109 3109 3111 3112 3114 3117 3121 3123 3125 3127 3129 3131 3133 3136
3099 3097 3094 3092 3090 3088 3085 3083 3082 3080 3077 3076 3074 3073 3071 3069 3069 3071 3070 3063 3058 3057 3054 3052 3052 3051 3050 3050 3051 3053 3055 3055 3056 3057 3059 3060 3061 3063 3066 3068 3069 3071 3072 3071 3071 3074 3076 3077 3076 3077 3079 3083 3086 3087 3089 3092 3095 3098 3100 3101 3102 3103 3105 3105 3105 3107 3103 3097 3097 3099 3102 3104 3103 3103 3105 3104 3106 3109 3110 3112 3116 3119 3121 3123 3126 3127 3130 3134
3097 3095 3093 3090 3088 3086 3084 3083 3081 3079 3076 3074 3073 3071 3069 3069 3070 3071 3068 3063 3061 3059 3055 3053 3052 3051 3052 3052 3052 3053 3054 3055 3054 3054 3057 3059 3059 3059 3061 3062 3064 3066 3066 3065 3068 3072 3072 3070 3072 3075 3077 3079 3082 3083 3085 3088 3091 3094 3096 3098 3099 3099 3100 3100 3100 3099 3096 3096 3099 3100 3101 3100 3098 3100 3102 3103 3106 3107 3107 3106 3109 3114 3117 3119 3122 3124 3127 3131
3095 3093 3092 3089 3086 3084 3083 3081 3079 3077 3075 3074 3073 3070 3070 3071 3072 3070 3069 3066 3064 3062 3060 3058 3055 3053 3053 3053 3051 3052 3053 3053 3054 3054 3054 3056 3057 3057 3058 3060 3062 3063 3061 3064 3069 3068 3066 3067 3070 3071 3071 3073 3076 3078 3079 3081 3085 3088 3089 3091 3092 3093 3095 3096 3095 3094 3094 3096 3099 3102 3102 3098 3096 3097 3098 3102 3105 3106 3107 3105 3103 3108 3113 3115 3117 3121 3124 3127
3093 3090 3089 3088 3085 3083 3081 3079 3077 3075 3074 3073 3072 3071 3071 3073 3072 3069 3068 3066 3064 3062 3060 3059 3056 3054 3054 3054 3053 3054 3052 3049 3051 3053 3052 3053 3055 3055 3056 3058 3060 3061 3062 3065 3066 3063 3062 3062 3061 3062 3065 3068 3070 3072 3076 3078 3081 3083 3085 3087 3087 3086 3088 3091 3091 3092 3094 3094 3096 3101 3099 3093 3092 3094 3096 3101 3103 3104 3106 3105 3103 3105 3108 3111 3114 3117 3121 3124
3091 3088 3086 3085 3083 3081 3079 3077 3076 3075 3074 3073 3072 3073 3073 3073 3071 3069 3068 3066 3064 3062 3060 3060 3059 3056 3054 3053 3053 3054 3053 3048 3047 3046 3045 3049 3051 3052 3054 3055 3057 3061 3063 3063 3061 3061 3059 3055 3055 3060 3064 3066 3067 3069 3074 3078 3078 3080 3084 3085 3082 3082 3086 3089 3089 3090 3092 3093 3094 3095 3092 3089 3092 3094 3096 3100 3101 3102 3104 3102 3103 3105 3106 3108 3111 3114 3118 3120
3089 3086 3082 3081 3081 3080 3078 3077 3076 3075 3074 3073 3073 3074 3074 3073 3071 3070 3069 3066 3064 3063 3061 3060 3061 3059 3055 3050 3048 3049 3050 3049 3047 3043 3041 3044 3048 3052 3053 3053 3056 3059 3060 3059 3057 3058 3056 3053 3055 3060 3060 3062 3064 3067 3071 3073 3073 3076 3079 3077 3077 3082 3087 3088 3088 3089 3091 3092 3092 3091 3088 3089 3092 3092 3093 3096 3096 3099 3101 3099 3098 3102 3105 3106 3107 3111 3113 3116
3087 3084 3081 3079 3078 3077 3077 3077 3075 3075 3073 3072 3073 3074 3073 3072 3071 3070 3069 3067 3065 3064 3064 3062 3061 3061 3057 3052 3050 3050 3049 3047 3046 3045 3042 3042 3047 3048 3047 3050 3055 3058 3059 3060 3057 3055 3054 3051 3054 3057 3056 3057 3062 3066 3068 3070 3070 3071 3071 3072 3079 3085 3086 3087 3087 3087 3089 3091 3088 3087 3086 3087 3088 3087 3089 3092 3092 3094 3097 3097 3095 3097 3101 3104 3105 3108 3110 3113
3085 3083 3080 3078 3076 3075 3076 3076 3075 3075 3073 3071 3072 3073 3072 3071 3070 3069 3068 3066 3065 3065 3065 3064 3063 3061 3059 3056 3053 3052 3051 3049 3048 3047 3044 3043 3044 3043 3041 3042 3045 3046 3050 3053 3052 3053 3052 3049 3049 3051 3052 3053 3059 3063 3064 3065 3067 3067 3068 3072 3077 3079 3080 3082 3084 3083 3086 3087 3084 3081 3081 3082 3082 3081 3083 3086 3087 3088 3091 3094 3094 3093 3096 3101 3103 3107 3110 3113
3083 3082 3079 3078 3077 3076 3076 3076 3075 3075 3073 3072 3072 3072 3071 3070 3069 3068 3067 3066 3065 3065 3064 3064 3063 3061 3059 3058 3055 3054 3054 3052 3049 3048 3048 3045 3044 3043 3043 3041 3038 3039 3043 3043 3044 3047 3049 3047 3045 3044 3048 3051 3054 3056 3055 3057 3062 3065 3067 3069 3072 3074 3075 3077 3078 3079 3081 3082 3081 3079 3077 3076 3075 3075 3076 3078 3081 3084 3086 3089 3091 3090 3092 3098 3101 3105 3108 3111
3083 3081 3081 3079 3076 3075 3075 3075 3074 3074 3072 3072 3072 3072 3070 3069 3068 3067 3066 3066 3066 3065 3064 3063 3062 3060 3059 3057 3056 3056 3054 3052 3050 3050 3050 3049 3046 3042 3040 3038 3037 3039 3039 3038 3040 3042 3042 3044 3041 3038 3042 3046 3045 3045 3047 3050 3055 3059 3061 3064 3066 3070 3073 3075 3076 3076 3077 3078 3078 3077 3075 3072 3071 3072 3071 3072 3075 3078 3081 3085 3086 3086 3089 3095 3098 3101 3105 3108
3083 3080 3080 3079 3075 3074 3075 3074 3073 3073 3072 3072 3072 3071 3069 3069 3068 3066 3066 3065 3065 3064 3064 3062 3061 3060 3059 3056 3056 3056 3053 3051 3050 3050 3049 3050 3049 3043 3039 3039 3039 3037 3035 3033 3035 3037 3037 3040 3039 3035 3036 3039 3038 3040 3045 3049 3052 3055 3057 3059 3062 3065 3068 3071 3072 3072 3074 3075 3074 3075 3073 3069 3068 3069 3067 3068 3071 3074 3077 3081 3083 3082 3085 3091 3095 3098 3102 3105
3082 3079 3078 3077 3075 3074 3075 3073 3071 3071 3071 3070 3070 3070 3068 3068 3068 3066 3065 3064 3063 3063 3062 3061 3060 3059 3058 3056 3055 3055 3052 3049 3049 3050 3049 3050 3049 3045 3041 3042 3041 3040 3037 3034 3034 3037 3037 3037 3037 3033 3032 3035 3037 3040 3044 3047 3052 3055 3056 3058 3060 3061 3062 3064 3066 3068 3071 3073 3072 3073 3072 3067 3066 3065 3063 3064 3068 3071 3074 3079 3081 3081 3083 3087 3091 3095 3099 3103
3080 3079 3077 3075 3073 3073 3073 3072 3071 3071 3070 3069 3069 3069 3067 3067 3067 3065 3064 3064 3063 3062 3061 3060 3059 3058 3058 3056 3054 3054 3052 3049 3048 3049 3048 3047 3045 3043 3042 3042 3040 3038 3036 3034 3033 3035 3035 3035 3035 3031 3030 3032 3035 3038 3041 3044 3049 3052 3053 3054 3056 3057 3059 3061 3065 3066 3068 3070 3071 3072 3070 3067 3065 3063 3060 3062 3066 3069 3073 3077 3079 3081 3082 3085 3088 3092 3097 3101
3077 3076 3075 3073 3070 3069 3071 3071 3071 3070 3070 3069 3069 3067 3066 3066 3066 3065 3064 3063 3063 3062 3060 3059 3059 3058 3057 3055 3053 3053 3052 3050 3048 3047 3046 3043 3041 3040 3041 3041 3039 3038 3037 3036 3036 3036 3034 3034 3034 3032 3031 3031 3032 3034 3035 3038 3043 3045 3047 3050 3052 3055 3058 3061 3064 3065 3065 3067 3069 3070 3068 3066 3066 3064 3063 3064 3066 3069 3072 3076 3078 3079 3081 3084 3086 3090 3095 3099
3072 3070 3070 3070 3069 3069 3070 3071 3071 3070 3069 3068 3067 3066 3065 3065 3065 3064 3063 3062 3062 3061 3060 3059 3058 3057 3056 3054 3052 3052 3052 3051 3048 3047 3045 3041 3038 3037 3039 3039 3039 3039 3038 3038 3038 3037 3035 3033 3033 3033 3032 3031 3030 3030 3031 3034 3037 3041 3044 3048 3050 3053 3055 3058 3061 3062 3062 3064 3066 3067 3066 3066 3066 3066 3066 3067 3068 3069 3072 3075 3077 3077 3078 3082 3085 3089 3092 3096
3070 3066 3063 3064 3066 3068 3067 3067 3067 3067 3067 3066 3065 3065 3064 3064 3064 3063 3062 3061 3060 3060 3059 3058 3057 3056 3055 3054 3052 3051 3051 3050 3049 3047 3043 3040 3037 3036 3037 3037 3038 3038 3037 3036 3036 3034 3032 3032 3032 3033 3032 3029 3028 3029 3030 3033 3035 3036 3040 3045 3048 3051 3053 3055 3057 3058 3060 3062 3063 3064 3065 3066 3066 3066 3067 3068 3069 3070 3071 3073 3076 3076 3076 3079 3084 3088 3091 3094
3071 3068 3063 3060 3062 3065 3064 3064 3065 3064 3065 3066 3064 3063 3063 3062 3062 3061 3060 3060 3059 3058 3057 3056 3056 3055 3053 3053 3051 3050 3050 3049 3048 3047 3043 3039 3036 3035 3035 3036 3036 3037 3036 3036 3035 3032 3029 3029 3029 3030 3029 3028 3028 3028 3028 3031 3033 3034 3037 3041 3044 3047 3049 3051 3052 3054 3058 3060 3060 3061 3064 3064 3064 3066 3068 3068 3069 3071 3072 3073 3075 3076 3077 3078 3082 3087 3090 3092
3070 3068 3066 3062 3061 3062 3062 3063 3064 3063 3063 3064 3063 3062 3061 3061 3060 3060 3059 3058 3058 3057 3056 3055 3055 3054 3053 3052 3051 3049 3049 3048 3047 3046 3043 3039 3036 3033 3033 3033 3035 3037 3036 3035 3035 3031 3029 3028 3027 3026 3024 3024 3024 3025 3026 3028 3029 3030 3033 3036 3039 3043 3045 3046 3049 3053 3056 3057 3058 3060 3061 3062 3064 3065 3066 3067 3069 3071 3071 3072 3074 3076 3078 3079 3081 3084 3087 3090
3069 3065 3064 3062 3060 3060 3061 3061 3061 3061 3061 3061 3061 3061 3060 3059 3059 3059 3058 3057 3056 3056 3055 3053 3053 3052 3051 3051 3050 3048 3048 3047 3046 3044 3042 3040 3037 3035 3033 3032 3033 3035 3036 3035 3034 3032 3029 3027 3025 3023 3021 3020 3021 3023 3025 3026 3026 3026 3029 3034 3037 3039 3042 3045 3048 3052 3054 3056 3058 3059 3059 3060 3062 3063 3065 3067 3069 3071 3071 3072 3074 3076 3077 3079 3081 3083 3085 3087
3067 3063 3060 3059 3058 3059 3060 3060 3060 3059 3059 3059 3059 3059 3058 3058 3057 3057 3056 3055 3055 3053 3053 3051 3051 3050 3050 3049 3048 3047 3047 3046 3044 3042 3041 3040 3038 3037 3035 3034 3033 3033 3034 3034 3033 3032 3030 3028 3026 3023 3020 3019 3021 3023 3025 3026 3025 3025 3028 3031 3034 3037 3040 3043 3047 3049 3051 3054 3057 3059 3059 3059 3061 3063 3065 3067 3069 3071 3071 3071 3073 3075 3076 3078 3081 3082 3085 3087
3066 3063 3059 3057 3056 3057 3058 3059 3059 3058 3058 3058 3057 3056 3056 3055 3055 3054 3053 3053 3053 3052 3051 3050 3049 3048 3048 3047 3047 3045 3045 3044 3042 3041 3041 3039 3038 3037 3036 3036 3035 3033 3033 3034 3033 3032 3031 3028 3026 3024 3022 3020 3021 3023 3024 3025 3025 3025 3025 3027 3030 3033 3036 3040 3043 3046 3049 3051 3054 3056 3057 3058 3060 3062 3065 3066 3069 3071 3070 3070 3072 3074 3076 3078 3080 3082 3085 3087
3065 3062 3060 3056 3055 3056 3057 3057 3057 3057 3057 3057 3056 3055 3054 3053 3053 3053 3051 3050 3051 3051 3050 3049 3048 3046 3045 3045 3045 3043 3042 3041 3040 3039 3038 3037 3036 3036 3035 3034 3035 3034 3033 3034 3033 3032 3032 3030 3028 3027 3026 3022 3021 3022 3023 3025 3025 3024 3024 3025 3027 3030 3034 3037 3041 3045 3048 3050 3052 3054 3056 3057 3059 3061 3063 3065 3068 3070 3070 3070 3071 3074 3077 3080 3081 3083 3085 3088